Regional Weather Roundup
Issued by NWS Newport/Morehead, NC

Current Version | Previous Version | Graphics & Text | Print | Product List | Glossary On
Versions: 1 2 3 4 5 6 7 8 9 10 11 12 13 14 15 16 17 18 19 20 21 22 23 24 25 26 27 28 29 30 31 32 33 34 35 36 37 38 39 40 41 42 43 44 45 46 47 48 49 50
000 ASUS42 KMHX 211513 RWRMHX WEATHER ROUNDUP FOR EASTERN NORTH CAROLINA NATIONAL WEATHER SERVICE NEWPORT/MOREHEAD CITY NC 1100 AM EDT THU SEP 21 2017 NOTE: "FAIR" INDICATES FEW OR NO CLOUDS BELOW 12,000 FEET WITH NO SIGNIFICANT WEATHER AND/OR OBSTRUCTIONS TO VISIBILITY NCZ015>017-031-032-045>047-102-103-211600- NORTH COAST CITY SKY/WX TMP DP RH WIND PRES REMARKS EDENTON PTSUNNY 83 72 67 CALM 30.05S ELIZABETH CITY SUNNY 83 69 62 N6 30.03F KITTY HAWK SUNNY 79 64 59 CALM 30.03S MANTEO SUNNY 79 65 62 N8 30.04S $$ NCZ045>047-081-094-103-104-211600- CENTRAL COAST CITY SKY/WX TMP DP RH WIND PRES REMARKS FRISCO SUNNY 83 71 67 VRB5 30.04R $$ NCZ095-097-098-100-101-211600- SOUTHERN COAST CITY SKY/WX TMP DP RH WIND PRES REMARKS BEAUFORT SUNNY 82 71 69 W5 30.03S CEDAR ISLAND NOT AVBL JACKSONVILLE MOSUNNY 83 71 67 CALM 30.03S PINEY ISLAND N/A N/A N/A N/A VRB6 30.04R WILMINGTON SUNNY 84 71 65 NW5 30.04S $$ NCZ011>013-027>030-043-044-078>080-089-090>093-098-211600- COASTAL PLAIN CITY SKY/WX TMP DP RH WIND PRES REMARKS AHOSKIE N/A 81 68 65 N7 30.05S CLINTON SUNNY 82 71 69 NE5 30.04F ELIZABETHTOWN NOT AVBL GOLDSBORO MOSUNNY 81 76 83 NE3 30.03S GREENVILLE SUNNY 79 72 78 N3 30.06R HAVELOCK MOSUNNY 85 71 63 VRB3 30.04S KENANSVILLE MOSUNNY 81 70 69 CALM 30.05R KINSTON MOSUNNY 82 70 65 CALM 30.05R NEW BERN SUNNY 84 71 65 CALM 30.04S RICHLANDS PTSUNNY 82 70 66 CALM 30.04S ROCKY MOUNT MOSUNNY 82 72 71 VRB3 30.05S WASHINGTON MOSUNNY 86 71 61 E7 30.03F WHITEVILLE SUNNY 82 71 68 NW5 30.04S $$ AMZ130-135-150-152-154-156-158-170-250-252-270-ANZ085-086-088-633-658-670-211600- MARINE OBSERVATIONS STATION/POSITION TIME TEMP WIND PRES WAVE SWELL AIR SEA DIR/SP/G HT/PER HT/PER (UTC) (F) (DEG/KT/KT) (MB) (FT/S) (FT/S) CHESAPEAKE LIGHT NOT AVBL 64 E VA BEACH 1450 70 70 310/ 4/ 6 1017.1 8/11 8/11 DUCK 1448 75 75 350/ 7/ 8 1016.6 2 E DUCK 1500 75 N/A 4/11 2/11 OREGON INLET 1442 80 76 350/ 8/ 12 1016.9 13E OREGON INLT 1448 75 N/A 5/11 5/11 HATTERAS CG 1448 78 77 10/ 6/ 6 1017.0 DIAMOND BUOY 1450 76 76 350/ 4/ 6 1016.8 4/11 3/11 CAPE LOOKOUT 1500 80 270/ 3/ 4 1016.6 BEAUFORT LAB 1448 81 75 310/ 2/ 4 1016.4 30 SE NEW RVR IN 1408 78 330/ 8/ 10 1016.9 30 SE NEW RVR IN NOT AVBL 27 SE WRIGHTSVLE 1408 78 80 310/ 8/ 12 1017.1 5 SE WRIGHTSVLE 1408 77 78 10/ 6/ 10 1017.1 225 S CAPE HAT 1450 78 80 20/ 2/ 4 1017.7 5/ 9 5/ 9 41 SE CHARLESTON 1450 79 81 320/ 4/ 6 1017.4 3/11 3/11 $$

USA.gov is the U.S. government's official web portal to all federal, state and local government web resources and services.